User: anonymous   Login
Location: Chequamegon National Forest
(46.1070°N, 90.8420°W)
Time: 17:16:21
(UTC-05:00)
Language:

ISS - Orbit

View from above orbital plane
View from above orbital plane
View from above satellite
View from above satellite

Ground track
Ground track

The orbit data is extracted from the following two-line orbital elements,

1 25544U 98067A   15240.56250023  .00019604  00000-0  28740-3 0  9999
2 25544 051.6444 082.6585 0001285 059.4611 343.1592 15.55548693959306
Epoch (UTC): 28 August 2015 13:30:00
Eccentricity: 0.0001285
inclination: 51.6444°
perigee height: 399 km
apogee height: 401 km
right ascension of ascending node: 82.6585°
argument of perigee: 59.4611°
revolutions per day: 15.55548693
mean anomaly at epoch: 343.1592°
orbit number at epoch: 95930

The dashed part of the orbit path shows where the satellite is in the earth's shadow,  

DLR